WW5AH-9 Weather Reports


time (UTC)temp
F
wind
direction
speed
knots
gust
knots
rain 1hr
in
rain 24hr
in
rain mn
in
humidity
%
barometer
mb
20260502150241 69 79 0.0 0.0 0.00 0.00 0.00 72 1020.4
20260502130630 57 210 0.0 0.0 0.00 0.00 0.00 93 1019.8
20260502130128 56 249 0.0 0.9 0.00 0.00 0.00 93 1019.8
20260502123613 54 217 0.0 0.0 0.00 0.00 0.00 94 1019.3
20260502123109 54 212 0.0 0.0 0.00 0.00 0.00 95 1019.0
20260502122606 52 198 0.0 0.0 0.00 0.00 0.00 95 1018.9
20260502122103 51 218 0.0 0.0 0.00 0.00 0.00 94 1018.8
20260502121601 51 232 0.0 0.0 0.00 0.00 0.00 94 1018.8
20260502121058 50 224 0.0 0.0 0.00 0.00 0.00 94 1018.6
20260502120554 49 243 0.0 0.0 0.00 0.00 0.00 94 1018.6
20260502115550 49 229 0.0 0.0 0.00 0.00 0.00 94 1018.6
20260502115045 48 225 0.0 0.0 0.00 0.00 0.00 93 1018.5
20260502114542 48 225 0.0 0.0 0.00 0.00 0.00 93 1018.2
20260502114038 48 225 0.0 0.0 0.00 0.00 0.00 93 1018.3
20260502113536 48 225 0.0 0.0 0.00 0.00 0.00 93 1018.3
20260502113035 48 225 0.0 0.0 0.00 0.00 0.00 93 1018.0
20260502112532 49 226 0.0 0.0 0.00 0.00 0.00 93 1018.1
20260502112029 49 228 0.0 0.0 0.00 0.00 0.00 93 1018.1
20260502111527 50 233 0.0 0.0 0.00 0.00 0.00 92 1018.1
20260502111024 50 246 0.0 0.0 0.00 0.00 0.00 92 1018.3
20260502110521 50 258 0.0 0.0 0.00 0.00 0.00 92 1018.0
20260502110019 50 255 0.0 0.0 0.00 0.00 0.00 92 1017.7
20260502105516 50 231 0.0 0.0 0.00 0.00 0.00 92 1017.9
20260502105014 51 231 0.0 0.0 0.00 0.00 0.00 92 1017.9
20260502104510 51 231 0.0 0.0 0.00 0.00 0.00 92 1017.8
20260502104008 51 311 0.0 0.0 0.00 0.00 0.00 92 1017.9
20260502103505 51 272 0.0 0.0 0.00 0.00 0.00 91 1017.7
20260502103003 51 222 0.0 0.0 0.00 0.00 0.00 91 1017.5
20260502102459 52 224 0.0 0.0 0.00 0.00 0.00 91 1017.7
20260502101956 52 227 0.0 0.0 0.00 0.00 0.00 91 1017.5
20260502101454 52 237 0.0 0.0 0.00 0.00 0.00 91 1017.7
20260502100953 52 232 0.0 0.0 0.00 0.00 0.00 91 1017.6
20260502100451 52 231 0.0 0.0 0.00 0.00 0.00 91 1017.5
20260502091425 51 225 0.0 0.0 0.00 0.00 0.00 92 1017.3
20260502090922 51 230 0.0 0.0 0.00 0.00 0.00 92 1017.2
20260502090420 51 230 0.0 0.0 0.00 0.00 0.00 92 1017.3
20260502071314 52 221 0.0 0.0 0.00 0.00 0.00 92 1017.4
20260502070813 52 221 0.0 0.0 0.00 0.00 0.00 91 1017.5
20260502070310 53 222 0.0 0.0 0.00 0.00 0.00 91 1017.6
20260502065809 52 222 0.0 0.0 0.00 0.00 0.00 91 1017.7
20260502065306 52 221 0.0 0.0 0.00 0.00 0.00 91 1017.6
20260502064804 53 221 0.0 0.0 0.00 0.00 0.00 91 1017.8
20260502064301 53 221 0.0 0.0 0.00 0.00 0.00 91 1017.8
20260502063759 53 221 0.0 0.0 0.00 0.00 0.00 91 1017.6
20260502063257 53 221 0.0 0.0 0.00 0.00 0.00 91 1017.7
20260502062753 53 221 0.0 0.0 0.00 0.00 0.00 91 1017.6
20260502062251 53 221 0.0 0.0 0.00 0.00 0.00 90 1017.5
20260502061744 53 222 0.0 0.0 0.00 0.00 0.00 90 1017.7
20260502061242 53 204 0.0 0.0 0.00 0.00 0.00 90 1017.5
20260502060741 53 181 0.0 0.0 0.00 0.00 0.00 90 1017.6
20260502060237 53 188 0.0 0.0 0.00 0.00 0.00 90 1017.5
20260502055736 53 198 0.0 0.0 0.00 0.00 0.00 89 1017.5
20260502055233 53 198 0.0 0.0 0.00 0.00 0.00 89 1017.6
20260502054732 53 189 0.0 0.0 0.00 0.00 0.00 89 1017.5
20260502054229 53 189 0.0 0.0 0.00 0.00 0.00 89 1017.4
20260502053727 54 213 0.0 0.0 0.00 0.00 0.00 89 1017.6
20260502053224 54 213 0.0 0.0 0.00 0.00 0.00 89 1017.5
20260502052722 54 213 0.0 0.0 0.00 0.00 0.00 89 1017.6
20260502052220 54 194 0.0 0.0 0.00 0.00 0.00 89 1017.4
20260502051717 54 206 0.0 0.0 0.00 0.00 0.00 88 1017.5
20260502051216 54 206 0.0 0.0 0.00 0.00 0.00 88 1017.6
20260502050711 54 207 0.0 0.0 0.00 0.00 0.00 88 1017.4
20260502050208 54 207 0.0 0.0 0.00 0.00 0.00 87 1017.5
20260502045705 54 207 0.0 0.0 0.00 0.00 0.00 87 1017.5
20260502045202 54 207 0.0 0.0 0.00 0.00 0.00 87 1017.4
20260502044658 55 207 0.0 0.0 0.00 0.00 0.00 87 1017.4
20260502044154 55 207 0.0 0.0 0.00 0.00 0.00 87 1017.4
20260502043653 55 208 0.0 0.0 0.00 0.00 0.00 87 1017.5
20260502043150 55 207 0.0 0.0 0.00 0.00 0.00 87 1017.4
20260502042649 56 207 0.0 0.0 0.00 0.00 0.00 87 1017.4
20260502042146 56 207 0.0 0.0 0.00 0.00 0.00 87 1017.3
20260502041644 56 207 0.0 0.0 0.00 0.00 0.00 87 1017.3
20260502041141 56 206 0.0 0.0 0.00 0.00 0.00 86 1017.3
20260502040638 56 206 0.0 0.0 0.00 0.00 0.00 86 1017.0
20260502040135 56 225 0.0 0.0 0.00 0.00 0.00 86 1017.2
20260502035631 56 225 0.0 0.0 0.00 0.00 0.00 86 1017.2
20260502035128 56 225 0.0 0.0 0.00 0.00 0.00 86 1017.2
20260502034626 56 228 0.0 0.0 0.00 0.00 0.00 86 1017.2
20260502034124 56 227 0.0 0.0 0.00 0.00 0.00 86 1017.3
20260502033622 56 227 0.0 0.0 0.00 0.00 0.00 86 1017.2
20260502033119 56 227 0.0 0.0 0.00 0.00 0.00 86 1017.2
20260502032615 56 234 0.0 0.0 0.00 0.00 0.00 86 1017.2
20260502032112 57 234 0.0 0.0 0.00 0.00 0.00 85 1017.3
20260502031610 57 238 0.0 0.0 0.00 0.00 0.00 85 1017.2
20260502031108 57 230 0.0 0.0 0.00 0.00 0.00 85 1017.2
20260502030606 57 228 0.0 0.0 0.00 0.00 0.00 85 1017.1
20260502030104 57 238 0.0 0.0 0.00 0.00 0.00 85 1017.1
20260502025600 57 226 0.0 0.0 0.00 0.00 0.00 85 1017.1
20260502025059 57 235 0.0 0.0 0.00 0.00 0.00 85 1016.9
20260502024556 57 215 0.0 0.0 0.00 0.00 0.00 85 1017.2
20260502024054 57 256 0.0 0.0 0.00 0.00 0.00 85 1017.1
20260502023552 57 259 0.0 0.0 0.00 0.00 0.00 84 1017.1
20260502023049 57 257 0.0 0.0 0.00 0.00 0.00 84 1017.0
20260502022545 57 242 0.0 0.0 0.00 0.00 0.00 84 1016.9
20260502022043 57 235 0.0 0.0 0.00 0.00 0.00 84 1016.7
20260502021540 57 224 0.0 0.0 0.00 0.00 0.00 84 1016.8
20260502021037 57 228 0.0 0.0 0.00 0.00 0.00 84 1016.8
20260502020534 57 242 0.0 0.0 0.00 0.00 0.00 83 1016.4
20260502020031 58 215 0.0 0.0 0.00 0.00 0.00 83 1016.4
20260502015529 58 213 0.0 0.0 0.00 0.00 0.00 83 1016.3
20260502015025 58 229 0.0 0.0 0.00 0.00 0.00 82 1016.0
20260502014522 58 260 0.0 0.0 0.00 0.00 0.00 82 1016.2
20260502014019 58 243 0.0 0.0 0.00 0.00 0.00 82 1015.8
20260502013515 58 220 0.0 0.0 0.00 0.00 0.00 81 1016.1
20260502013011 58 220 0.0 0.0 0.00 0.00 0.00 81 1015.9
20260502012509 58 250 0.0 0.0 0.00 0.00 0.00 80 1015.7
20260502012006 58 237 0.0 0.0 0.00 0.00 0.00 80 1015.7
20260502011502 59 218 0.0 0.0 0.00 0.00 0.00 79 1015.5
20260502010959 59 218 0.0 0.0 0.00 0.00 0.00 79 1015.4
20260502010456 59 218 0.0 0.0 0.00 0.00 0.00 78 1015.3
20260502005952 59 227 0.0 0.0 0.00 0.00 0.00 78 1015.3
20260502005450 60 189 0.0 0.0 0.00 0.00 0.00 77 1015.3
20260502004948 60 198 0.0 0.0 0.00 0.00 0.00 77 1015.1
20260502004443 60 191 0.0 0.0 0.00 0.00 0.00 76 1015.3
20260502003940 60 207 0.0 0.0 0.00 0.00 0.00 75 1015.2
20260502003438 61 196 0.0 0.0 0.00 0.00 0.00 74 1015.4
20260502002934 61 207 0.0 0.0 0.00 0.00 0.00 74 1015.5
20260502002432 61 202 0.0 0.0 0.00 0.00 0.00 73 1015.4
20260502001929 62 214 0.0 0.0 0.00 0.00 0.00 72 1015.3
20260502001426 62 190 0.0 0.0 0.00 0.00 0.00 72 1015.0
20260502000924 62 183 0.0 0.0 0.00 0.00 0.00 71 1015.0
20260502000424 62 163 0.0 0.9 0.00 0.00 0.00 70 1014.8
20260501235918 63 163 0.0 0.0 0.00 0.00 0.00 69 1014.9
20260501235414 63 144 0.0 0.9 0.00 0.00 0.00 69 1014.8
20260501234909 64 155 0.0 0.9 0.00 0.00 0.00 68 1015.1
20260501234406 64 169 0.0 0.0 0.00 0.00 0.00 68 1015.2
20260501233905 64 138 0.0 2.6 0.00 0.00 0.00 68 1015.1
20260501233402 64 160 0.0 0.0 0.00 0.00 0.00 68 1015.1
20260501232857 64 163 0.0 0.0 0.00 0.00 0.00 68 1015.1
20260501232355 64 177 0.0 0.0 0.00 0.00 0.00 68 1014.6
20260501231852 64 204 0.0 0.0 0.00 0.00 0.00 66 1014.6
20260501231350 64 37 0.0 0.0 0.00 0.00 0.00 66 1014.5
20260501230848 64 190 0.0 0.0 0.00 0.00 0.00 66 1014.2
20260501230347 64 193 0.0 0.0 0.00 0.00 0.00 65 1014.5
20260501225844 65 143 0.9 2.6 0.00 0.00 0.00 63 1014.1
20260501225341 65 152 0.0 0.0 0.00 0.00 0.00 63 1014.7
20260501224837 66 85 1.7 1.7 0.00 0.00 0.00 62 1014.2
20260501224335 66 199 0.0 0.0 0.00 0.00 0.00 61 1014.1
20260501223831 66 175 0.0 0.0 0.00 0.00 0.00 62 1014.0
20260501223327 66 119 1.7 2.6 0.00 0.00 0.00 62 1013.7
20260501222823 65 173 0.0 0.9 0.00 0.00 0.00 64 1013.1
20260501222320 64 211 0.0 0.9 0.00 0.00 0.00 63 1013.3
20260501221817 64 355 0.0 0.9 0.00 0.00 0.00 62 1013.2
20260501221314 64 149 0.0 0.0 0.00 0.00 0.00 61 1013.5
20260501220812 65 66 0.0 0.0 0.00 0.00 0.00 61 1013.7
20260501220309 65 172 0.0 0.0 0.00 0.00 0.00 61 1014.0
20260501215806 65 141 0.0 0.0 0.00 0.00 0.00 60 1013.7
20260501215305 65 42 0.0 1.7 0.00 0.00 0.00 59 1013.5
20260501214756 65 82 0.0 0.0 0.00 0.00 0.00 59 1013.9
20260501214253 65 37 0.9 6.1 0.00 0.00 0.00 58 1013.9
20260501213749 65 32 1.7 2.6 0.00 0.00 0.00 58 1014.2
20260501213245 65 77 0.9 5.2 0.00 0.00 0.00 58 1014.1
20260501212742 65 218 0.0 5.2 0.00 0.00 0.00 57 1013.9
20260501212238 65 47 1.7 3.5 0.00 0.00 0.00 58 1014.1
20260501211736 65 116 0.0 7.8 0.00 0.00 0.00 57 1013.9
20260501211232 65 140 0.0 3.5 0.00 0.00 0.00 57 1014.2
20260501210729 65 60 1.7 3.5 0.00 0.00 0.00 57 1014.8
20260501210226 65 82 0.9 3.5 0.00 0.00 0.00 57 1014.7
20260501205722 65 123 2.6 7.0 0.00 0.00 0.00 57 1014.1
20260501205220 65 93 3.5 6.1 0.00 0.00 0.00 57 1013.9
20260501204717 66 81 5.2 9.6 0.00 0.00 0.00 56 1014.1
20260501204213 66 64 4.3 9.6 0.00 0.00 0.00 57 1013.7
20260501203709 66 26 0.0 2.6 0.00 0.00 0.00 59 1013.6
20260501203207 66 92 0.9 7.8 0.00 0.00 0.00 59 1013.5
20260501202704 66 57 3.5 7.8 0.00 0.00 0.00 60 1013.5
20260501202201 65 100 5.2 11.3 0.00 0.00 0.00 60 1013.3
20260501201657 65 41 2.6 7.0 0.00 0.00 0.00 60 1013.7
20260501201154 64 96 4.3 6.1 0.00 0.00 0.00 60 1014.0
20260501200651 64 24 3.5 7.0 0.00 0.00 0.00 59 1014.0
20260501200149 64 53 3.5 6.1 0.00 0.00 0.00 60 1014.1
20260501195646 64 140 1.7 6.1 0.00 0.00 0.00 61 1014.0
20260501195142 64 121 1.7 3.5 0.00 0.00 0.00 61 1014.3
20260501194638 64 66 5.2 7.0 0.00 0.00 0.00 61 1014.2
20260501194133 64 76 5.2 6.1 0.00 0.00 0.00 61 1014.2
20260501193631 64 165 1.7 3.5 0.00 0.00 0.00 65 1014.5
20260501193129 64 150 0.9 2.6 0.00 0.00 0.00 66 1014.8
20260501192626 64 184 0.0 1.7 0.00 0.00 0.00 67 1014.9
20260501192123 64 124 3.5 7.0 0.00 0.00 0.00 66 1015.0
20260501191620 64 101 1.7 6.1 0.00 0.00 0.00 67 1015.2
20260501191117 63 181 0.0 1.7 0.00 0.00 0.00 70 1015.4
20260501190614 62 70 0.9 0.9 0.00 0.00 0.00 70 1015.5
20260501190108 62 84 0.0 5.2 0.00 0.00 0.00 69 1015.8
20260501185605 62 63 1.7 2.6 0.00 0.00 0.00 70 1015.8
20260501185101 62 142 0.0 3.5 0.00 0.00 0.00 70 1015.9
20260501184557 62 2 2.6 3.5 0.00 0.00 0.00 71 1016.1
20260501184052 62 81 0.9 3.5 0.00 0.00 0.00 72 1016.4
20260501183549 62 130 1.7 5.2 0.00 0.00 0.00 74 1015.8
20260501183045 61 73 1.7 6.1 0.00 0.00 0.00 74 1016.2
20260501182543 61 27 1.7 2.6 0.00 0.00 0.00 74 1016.2
20260501182039 61 17 1.7 6.1 0.00 0.00 0.00 74 1016.1
20260501181537 61 355 0.9 2.6 0.00 0.00 0.00 75 1016.3
20260501181033 61 76 1.7 2.6 0.00 0.00 0.00 77 1016.4
20260501180532 61 74 0.9 2.6 0.00 0.00 0.00 77 1016.8
20260501180027 61 56 4.3 6.1 0.00 0.00 0.00 78 1016.7
20260501175524 61 39 2.6 2.6 0.00 0.00 0.00 80 1016.8
20260501175020 60 326 0.0 1.7 0.00 0.00 0.00 80 1016.9
20260501174518 60 182 0.0 0.9 0.00 0.00 0.00 81 1017.0
20260501174016 60 180 0.9 1.7 0.00 0.00 0.00 81 1017.1
20260501173513 59 177 0.0 0.0 0.00 0.00 0.00 82 1016.7
20260501173009 59 45 0.9 1.7 0.00 0.00 0.00 82 1016.7
20260501172505 59 94 0.9 5.2 0.00 0.00 0.00 81 1016.9
20260501172001 59 9 0.9 0.9 0.00 0.00 0.00 83 1016.8
20260501171456 59 61 0.9 1.7 0.00 0.00 0.00 83 1017.1
20260501170953 59 85 1.7 2.6 0.00 0.00 0.00 83 1017.2
20260501170449 59 78 1.7 6.1 0.00 0.00 0.00 83 1017.0
20260501165947 59 55 0.0 0.9 0.00 0.00 0.00 83 1017.1
20260501165445 59 90 0.0 2.6 0.00 0.00 0.00 83 1017.1
20260501164942 59 37 0.9 2.6 0.00 0.00 0.00 83 1017.4
20260501164440 59 146 1.7 1.7 0.00 0.00 0.00 84 1017.5
20260501163936 59 154 0.0 0.9 0.00 0.00 0.00 84 1017.7
20260501163432 59 182 0.9 2.6 0.00 0.00 0.00 84 1017.9
20260501162929 59 254 0.0 1.7 0.00 0.00 0.00 85 1017.9
20260501162426 59 65 0.0 2.6 0.00 0.00 0.00 85 1018.0
20260501161923 58 221 0.0 1.7 0.00 0.00 0.00 86 1017.7
20260501161420 58 164 0.9 2.6 0.00 0.00 0.00 86 1017.8
20260501160916 58 19 0.9 3.5 0.00 0.00 0.00 86 1017.8
20260501160413 58 87 0.9 6.1 0.00 0.00 0.00 86 1017.6
20260501155911 58 112 0.9 2.6 0.00 0.00 0.00 87 1017.4
20260501155407 58 152 0.0 5.2 0.00 0.00 0.00 88 1017.5
20260501154904 58 132 0.9 1.7 0.00 0.00 0.00 88 1017.3
20260501154401 58 40 3.5 3.5 0.00 0.00 0.00 89 1017.2
20260501153858 58 18 0.9 3.5 0.00 0.00 0.00 89 1017.2
20260501153356 58 66 0.9 2.6 0.00 0.00 0.00 90 1017.2
20260501152851 58 79 0.0 0.9 0.00 0.00 0.00 90 1017.0
20260501152349 58 116 0.9 2.6 0.00 0.00 0.00 90 1017.1
20260501151847 58 8 0.0 2.6 0.00 0.00 0.00 91 1017.2
20260501151342 58 60 0.9 2.6 0.00 0.00 0.00 92 1016.9
20260501150839 57 254 0.0 1.7 0.00 0.00 0.00 92 1017.0
20260501150335 58 349 0.0 0.9 0.00 0.00 0.00 93 1017.1